{"data":{"norad_id":62192,"epoch":"2026-05-25T04:39:06.689088Z","epoch_age_seconds":58219,"freshness":"FRESH","line1":"1 62192U 24229A   26145.19382742  .00012579  00000+0  46577-3 0  9998","line2":"2 62192  43.0008 195.0413 0001469 267.7247  92.3437 15.27585618 82304","mean_motion":15.27585618,"eccentricity":0.0001469,"inclination_deg":43.0008,"raan_deg":195.0413,"arg_perigee_deg":267.7247,"mean_anomaly_deg":92.3437,"bstar":0.00046577,"rev_number":8230,"period_min":94.26640202893,"perigee_km":482.02436801183,"apogee_km":484.04017954446,"semimajor_km":6861.1692737781,"source":"CELESTRAK","updated_at":"2026-05-25T13:38:19.605396Z"}}